Regional Weather Roundup
Issued by NWS

Home | Current Version | Previous Version | Text Only | Print | Product List | Glossary On
Versions: 1 2 3 4 5 6 7 8 9 10 11 12 13 14 15 16 17 18 19 20 21 22 23 24 25 26 27 28 29 30 31 32 33 34 35 36 37 38 39 40 41 42 43 44 45 46 47 48 49 50
529
ASUS45 KTFX 250310
RWRMT
MONTANA REGIONAL WEATHER ROUNDUP
NATIONAL WEATHER SERVICE GREAT FALLS MT
900 PM MDT FRI MAR 24 2017

NOTE: "FAIR" INDICATES FEW OR NO CLOUDS BELOW 12000 FEET WITH NO
SIGNIFICANT WEATHER AND/OR OBSTRUCTIONS TO VISIBILITY.

MTZ001>007-043-250400-
WEST OF THE DIVIDE

CITY           SKY/WX    TMP DP  RH WIND       PRES   REMARKS
KALISPELL      CLOUDY    39  38  96 SE3       29.84S
MISSOULA       CLOUDY    47  37  68 SW5       29.92R
BUTTE          CLOUDY    48  26  42 SW9G17    29.89R
MULLAN PASS    SNOW      29  29 100 VRB3      29.86R VSB 1/4
ANACONDA         N/A     45  32  61 S9G18     29.89R
DEER LODGE       N/A     48  30  49 SW5       29.89R
EUREKA           N/A     43  37  81 SE10      29.82R
HAMILTON         N/A     45  37  76 SE8       29.92R
PLAINS           N/A     45  34  65 CALM      29.90
RONAN            N/A     44  37  76 NE2       29.93R
$$

MTZ008-052>055-250400-
SOUTHWEST MONTANA

CITY           SKY/WX    TMP DP  RH WIND       PRES   REMARKS
BOZEMAN        PTCLDY    55  22  27 SW21G28   29.84F
DILLON         CLOUDY    49  26  41 S15       29.89R
W YELLOWSTONE  CLOUDY    39  25  56 S9G24     30.04R
ENNIS          CLOUDY    46  28  49 S32G40    29.98R
THREE FORKS      N/A     54  54 100 S10       29.87R
TWIN BRIDGES     N/A     51  24  35 S12       29.91
$$

MTZ009-010-012-014-046-048-049-054-250400-
EAST SLOPES AND CENTRAL MONTANA

CITY           SKY/WX    TMP DP  RH WIND       PRES   REMARKS
CUT BANK       MOCLDY    42  30  62 W16       29.75R
GREAT FALLS    CLOUDY    54  26  34 W22       29.73S
MALMSTROM AFB  CLOUDY    56  25  30 W16       29.75R
HELENA         CLOUDY    57  29  34 SW15G23   29.79R
AUGUSTA          N/A     45  31  58 SW20      29.77R
BOWMANS CRNR     N/A     47  30  51 SW18G26   29.77R
CHOTEAU          N/A     46  30  53 SW12      29.78R
CONRAD           N/A     48  33  56 S7        29.79R
FAIRFIELD        N/A     50  30  45 SW20      29.77R
POWER          CLOUDY    51  28  41 W18       29.74R
RAYNESFORD     MOCLDY    56  22  25 W13G23    29.76R
$$

MTZ011-013-016-021-045-047-050-051-250400-
NORTH CENTRAL MONTANA

CITY           SKY/WX    TMP DP  RH WIND       PRES   REMARKS
HAVRE          CLOUDY    56  29  35 S5        29.66F
LEWISTOWN      CLOUDY    55  21  26 SW17      29.77R
N BAR RANCH      N/A     52  28  40 SW14      29.82S
CHINOOK          N/A     55  25  30 CALM      29.68F
DENTON         MOCLDY    54  22  28 SW15      29.71R
FORT BENTON      N/A     61  21  21 N16       29.71R
GEYSER         MOCLDY    55  21  26 W12       29.75R
GRASS RANGE    MOCLDY    55  29  37 S12       29.74S
STANFORD       MOCLDY    51  21  29 SW15      29.77R
WINIFRED       MOCLDY    59  23  25 SW15      29.73R
$$

MTZ017>020-022>027-061-062-250400-
NORTHEAST MONTANA

CITY           SKY/WX    TMP DP  RH WIND       PRES   REMARKS
GLASGOW        MOCLDY    51  31  46 SE15      29.80F
JORDAN           N/A     51  32  48 SE9       29.80F
SIDNEY         CLEAR     51  35  54 S15       29.92S
WOLF POINT     CLOUDY    52  28  39 SE8       29.86S
MALTA          CLOUDY    57  32  38 SE12      29.72F
PLENTYWOOD       N/A     43  36  75 SE14G20   29.92S
POPLAR           N/A     48  30  49 SE8       29.88F
SCOBEY           N/A     45  26  47 E15       29.85F
$$

MTZ028>42-056>058-250400-
SOUTHCENTRAL AND SOUTHEAST MONTANA

CITY           SKY/WX    TMP DP  RH WIND       PRES   REMARKS
BAKER          CLOUDY    44  34  67 SE13      29.96F
BILLINGS       CLOUDY    56  30  37 S7        29.81S
LIVINGSTON     CLOUDY    54  21  27 SW30G41   29.82R
MILES CITY     CLOUDY    53  30  41 SE10      29.87S
BIG TIMBER     CLOUDY    54  21  28 SW9       29.85R
EKALAKA          N/A     49  29  46 SE15      29.94F
FORSYTH          N/A     52  34  50 SE8       29.83F
HARLOWTON      MOCLDY    51  21  30 CALM      29.80R
LAUREL           N/A     55  27  34 S3        29.83R
$$

REGIONAL REPORTS...DAKOTAS

CITY           SKY/WX    TMP DP  RH WIND       PRES   REMARKS
WILLISTON      CLOUDY    44  32  62 SE15      29.96F
MINOT          CLEAR     31  28  89 E14       30.12F WCI  21
DICKINSON      CLEAR     40  31  70 SE17      30.01F
BEACH            N/A    N/A N/A N/A MISG        N/A
TIOGA            N/A     36  36 100 SE16      30.03S WCI  26
WATFORD CITY     N/A     45  36  70 SE21G28   29.98S
BISMARCK       CLEAR     33  31  92 E8        30.15R WCI  26
GRAND FORKS    CLEAR     30  29  96 N6        30.24R WCI  24
FARGO          CLEAR     32  29  88 N7        30.20S WCI  26
BUFFALO SD       N/A     44  34  67 SE14      29.95S
RAPID CITY     CLEAR     42  29  59 SE7       30.06R
$$

REGIONAL REPORTS...WYOMING/IDAHO/WASHINGTON

CITY           SKY/WX    TMP DP  RH WIND       PRES   REMARKS
GILLETTE       CLEAR     45  30  55 S12       29.96S
SHERIDAN       CLOUDY    44  32  62 CALM      29.86S
BUFFALO WY     CLOUDY    50  23  34 S14       29.91S
CODY           CLEAR     49  20  31 SW10      29.92R
YELLOWSTONE LA   N/A     35  18  49 MISG      30.06S
IDAHO FALLS    CLOUDY    49  30  48 S17       30.04R
SALMON         CLOUDY    48  32  53 SW13      29.90S
BOISE          CLOUDY    46  43  89 E8        30.03S
SPOKANE        MOCLDY    43  40  89 W14       29.90R
$$

REGIONAL REPORTS...ALBERTA

CITY           SKY/WX    TMP DP  RH WIND       PRES   REMARKS
EDMONTON       CLEAR     34  30  86 E9        29.67F WCI  26
CALGARY        MOCLDY    46  23  39 W7        29.59S
LETHBRIDGE     CLOUDY    43  30  61 W8        29.69S
MEDICINE HAT   CLOUDY    54  28  37 S6        29.68R
WATERTON GATE    N/A     37  34  87 SW26G37     N/A  WCI  26
CARDSTON         N/A     43  30  61 SW6         N/A
MILK RIVER       N/A     46  32  57 SW24G30     N/A
$$

REGIONAL REPORTS...SASKATCHEWAN

CITY           SKY/WX    TMP DP  RH WIND       PRES   REMARKS
SWIFT CURRENT  CLOUDY    48  32  53 S13       29.73S
REGINA         CLOUDY    34  30  86 SE24G32   29.92F WCI  21
SASKATOON      CLOUDY    39  30  70 E18G25    29.85F WCI  30
VAL MARIE        N/A     54  30  40 SE16        N/A
ROCKGLEN         N/A     45  34  65 SE15        N/A
ASSINIBOIA       N/A     36  32  87 SE9         N/A  WCI  29
$$




USA.gov is the U.S. government's official web portal to all federal, state and local government web resources and services.